Location: Ab? ar R?sh Ba?r?
(24.1861°N, 32.8847°E)
Time: 20:04:46
(UTC+00:00)

H-2A R/B - Pass Details

Date: 05 June 2022
Orbit: 576 x 652 km, 98.5° (Epoch: 03 July)

Event Time Altitude Azimuth Distance (km) Brightness Sun altitude
Rises 18:32:41 0° 352° (N) 2,814 6.2 -23.5°
Reaches altitude 10° 18:35:13 10° 337° (NNW) 1,922 5.4 -24.0°
Maximum altitude 18:38:23 21° 287° (WNW) 1,344 4.4 -24.5°
Drops below altitude 10° 18:41:35 10° 238° (WSW) 1,949 4.8 -25.1°
Sets 18:44:11 0° 222° (SW) 2,865 5.5 -25.5°
